User: anonymous   Login
Location: Unspecified
(0.0000°N, 0.0000°E)
Time: 10:27:56
(UTC+02:00)
Language:

Transit 2A - Orbit

View from above orbital plane
View from above orbital plane
View from above satellite
View from above satellite

Ground track
Ground track

The orbit data is extracted from the following two-line orbital elements,

1 00045U 60007A   15216.55636684  .00000181  00000-0  72443-4 0  9994
2 00045 066.6947 027.9229 0255415 171.9992 188.5307 14.33375087867723
Epoch (UTC): 04 August 2015 13:21:10
Eccentricity: 0.0255415
inclination: 66.6947°
perigee height: 597 km
apogee height: 963 km
right ascension of ascending node: 27.9229°
argument of perigee: 171.9992°
revolutions per day: 14.33375087
mean anomaly at epoch: 188.5307°
orbit number at epoch: 86772

The dashed part of the orbit path shows where the satellite is in the earth's shadow,  

DLR